TimeEST,TemperatureF,Dew PointF,Humidity,Sea Level PressureIn,VisibilityMPH,Wind Direction,Wind SpeedMPH,Gust SpeedMPH,PrecipitationIn,Events,Conditions,WindDirDegrees,DateUTC
12:15 AM,30.2,28.4,93,30.45,10.0,Calm,Calm,-,N/A,,Clear,0,2012-11-15 05:15:00
12:57 AM,30.2,28.4,93,30.44,10.0,North,3.5,-,N/A,,Mostly Cloudy,350,2012-11-15 05:57:00
1:18 AM,32.0,30.2,93,30.43,10.0,Calm,Calm,-,N/A,,Overcast,0,2012-11-15 06:18:00
1:39 AM,32.0,30.2,93,30.43,10.0,Calm,Calm,-,N/A,,Overcast,0,2012-11-15 06:39:00
2:00 AM,32.0,32.0,100,30.43,10.0,Calm,Calm,-,N/A,,Overcast,0,2012-11-15 07:00:00
2:21 AM,33.8,32.0,93,30.43,10.0,Calm,Calm,-,N/A,,Overcast,0,2012-11-15 07:21:00
2:42 AM,33.8,32.0,93,30.42,10.0,Calm,Calm,-,N/A,,Overcast,0,2012-11-15 07:42:00
3:03 AM,33.8,32.0,93,30.42,10.0,Calm,Calm,-,N/A,,Overcast,0,2012-11-15 08:03:00
3:45 AM,33.8,32.0,93,30.42,10.0,Calm,Calm,-,N/A,,Overcast,0,2012-11-15 08:45:00
4:09 AM,37.4,32.0,81,30.41,10.0,NNE,3.5,-,N/A,,Overcast,30,2012-11-15 09:09:00
4:30 AM,37.4,32.0,81,30.41,10.0,NE,4.6,-,N/A,,Overcast,40,2012-11-15 09:30:00
4:51 AM,37.4,32.0,81,30.41,10.0,NNE,3.5,-,N/A,,Overcast,30,2012-11-15 09:51:00
5:12 AM,37.4,32.0,81,30.40,10.0,NNE,3.5,-,N/A,,Overcast,30,2012-11-15 10:12:00
5:54 AM,37.4,32.0,81,30.39,10.0,NE,4.6,-,N/A,,Overcast,40,2012-11-15 10:54:00
6:15 AM,37.4,32.0,81,30.40,10.0,ENE,4.6,-,N/A,,Overcast,60,2012-11-15 11:15:00
6:36 AM,37.4,30.2,75,30.40,10.0,NNE,4.6,-,N/A,,Overcast,30,2012-11-15 11:36:00
6:57 AM,37.4,30.2,75,30.41,10.0,Calm,Calm,-,N/A,,Overcast,0,2012-11-15 11:57:00
7:18 AM,37.4,30.2,75,30.41,10.0,Calm,Calm,-,N/A,,Overcast,0,2012-11-15 12:18:00
7:39 AM,39.2,30.2,70,30.41,10.0,NNE,3.5,-,N/A,,Overcast,20,2012-11-15 12:39:00
8:24 AM,41.0,30.2,65,30.42,10.0,NE,3.5,-,N/A,,Scattered Clouds,40,2012-11-15 13:24:00
8:45 AM,41.0,30.2,65,30.42,10.0,NNE,3.5,-,N/A,,Clear,30,2012-11-15 13:45:00
9:06 AM,42.8,32.0,66,30.42,10.0,ENE,4.6,-,N/A,,Scattered Clouds,60,2012-11-15 14:06:00
10:09 AM,44.6,32.0,61,30.41,10.0,ENE,6.9,-,N/A,,Overcast,70,2012-11-15 15:09:00
10:30 AM,44.6,32.0,61,30.42,10.0,East,11.5,-,N/A,,Overcast,80,2012-11-15 15:30:00
10:51 AM,44.6,32.0,61,30.41,10.0,ENE,8.1,-,N/A,,Overcast,70,2012-11-15 15:51:00
11:12 AM,44.6,32.0,61,30.40,10.0,ENE,9.2,-,N/A,,Overcast,70,2012-11-15 16:12:00
11:33 AM,46.4,32.0,57,30.39,10.0,ENE,6.9,-,N/A,,Overcast,60,2012-11-15 16:33:00
11:54 AM,46.4,32.0,57,30.39,10.0,East,9.2,-,N/A,,Overcast,90,2012-11-15 16:54:00
12:15 PM,46.4,32.0,57,30.39,10.0,East,5.8,-,N/A,,Overcast,90,2012-11-15 17:15:00
12:39 PM,46.4,32.0,57,30.38,10.0,ENE,4.6,-,N/A,,Overcast,70,2012-11-15 17:39:00
1:00 PM,46.4,32.0,57,30.38,10.0,NE,4.6,-,N/A,,Overcast,50,2012-11-15 18:00:00
1:21 PM,46.4,32.0,57,30.37,10.0,ENE,5.8,-,N/A,,Overcast,70,2012-11-15 18:21:00
2:03 PM,46.4,32.0,57,30.36,10.0,NNE,5.8,-,N/A,,Overcast,30,2012-11-15 19:03:00
2:24 PM,46.4,32.0,57,30.36,10.0,NE,4.6,-,N/A,,Overcast,50,2012-11-15 19:24:00
2:45 PM,46.4,32.0,57,30.35,10.0,NE,4.6,-,N/A,,Overcast,40,2012-11-15 19:45:00
3:06 PM,46.4,32.0,57,30.35,10.0,NE,4.6,-,N/A,,Mostly Cloudy,40,2012-11-15 20:06:00
3:27 PM,46.4,32.0,57,30.34,10.0,East,4.6,-,N/A,,Clear,80,2012-11-15 20:27:00
3:48 PM,46.4,32.0,57,30.34,10.0,East,5.8,-,N/A,,Clear,80,2012-11-15 20:48:00
4:09 PM,44.6,32.0,61,30.34,10.0,ENE,4.6,-,N/A,,Clear,60,2012-11-15 21:09:00
4:30 PM,42.8,32.0,66,30.35,10.0,Calm,Calm,-,N/A,,Mostly Cloudy,0,2012-11-15 21:30:00
4:51 PM,42.8,32.0,66,30.35,10.0,Calm,Calm,-,N/A,,Overcast,0,2012-11-15 21:51:00
5:15 PM,41.0,32.0,70,30.34,10.0,Calm,Calm,-,N/A,,Overcast,0,2012-11-15 22:15:00
5:36 PM,41.0,32.0,70,30.34,10.0,Calm,Calm,-,N/A,,Mostly Cloudy,0,2012-11-15 22:36:00
5:57 PM,37.4,32.0,81,30.34,10.0,Calm,Calm,-,N/A,,Scattered Clouds,0,2012-11-15 22:57:00
6:18 PM,37.4,32.0,81,30.35,10.0,Calm,Calm,-,N/A,,Mostly Cloudy,0,2012-11-15 23:18:00
6:39 PM,37.4,32.0,81,30.35,10.0,Calm,Calm,-,N/A,,Scattered Clouds,0,2012-11-15 23:39:00
7:00 PM,35.6,32.0,87,30.34,10.0,Calm,Calm,-,N/A,,Clear,0,2012-11-16 00:00:00
7:21 PM,35.6,32.0,87,30.34,10.0,Calm,Calm,-,N/A,,Clear,0,2012-11-16 00:21:00
7:42 PM,33.8,32.0,93,30.34,10.0,Calm,Calm,-,N/A,,Clear,0,2012-11-16 00:42:00
8:03 PM,33.8,32.0,93,30.34,10.0,Calm,Calm,-,N/A,,Clear,0,2012-11-16 01:03:00
8:45 PM,33.8,32.0,93,30.34,10.0,Calm,Calm,-,N/A,,Clear,0,2012-11-16 01:45:00
9:06 PM,35.6,32.0,87,30.33,10.0,Calm,Calm,-,N/A,,Clear,0,2012-11-16 02:06:00
9:27 PM,35.6,32.0,87,30.33,10.0,Calm,Calm,-,N/A,,Clear,0,2012-11-16 02:27:00
9:51 PM,35.6,32.0,87,30.34,10.0,Calm,Calm,-,N/A,,Clear,0,2012-11-16 02:51:00
10:12 PM,35.6,32.0,87,30.34,10.0,Calm,Calm,-,N/A,,Clear,0,2012-11-16 03:12:00
10:54 PM,35.6,32.0,87,30.33,10.0,Calm,Calm,-,N/A,,Clear,0,2012-11-16 03:54:00
11:15 PM,35.6,32.0,87,30.34,10.0,Calm,Calm,-,N/A,,Clear,0,2012-11-16 04:15:00
11:36 PM,35.6,32.0,87,30.33,10.0,Calm,Calm,-,N/A,,Clear,0,2012-11-16 04:36:00
11:57 PM,35.6,33.8,93,30.33,10.0,Calm,Calm,-,N/A,,Clear,0,2012-11-16 04:57:00